Year,Month,Day,Hour,Minute,Value (Times are PST for temperature in C)
2019,02,23,11,14,5.20
2019,02,23,11,15,5.20
2019,02,23,11,16,5.20
2019,02,23,11,17,5.20
2019,02,23,11,18,5.20
2019,02,23,11,19,5.20
2019,02,23,11,20,5.20
2019,02,23,11,21,5.20
2019,02,23,11,22,5.20
2019,02,23,11,23,5.20
2019,02,23,11,24,5.30
2019,02,23,11,25,5.30
2019,02,23,11,26,5.30
2019,02,23,11,27,5.30
2019,02,23,11,28,5.30
2019,02,23,11,29,5.30
2019,02,23,11,30,5.30
2019,02,23,11,31,5.30
2019,02,23,11,32,5.30
2019,02,23,11,33,5.30
2019,02,23,11,34,5.20
2019,02,23,11,35,5.20
2019,02,23,11,36,5.20
2019,02,23,11,37,5.20
2019,02,23,11,38,5.20
2019,02,23,11,39,5.20
2019,02,23,11,40,5.30
2019,02,23,11,41,5.30
2019,02,23,11,42,5.30
2019,02,23,11,43,5.30
2019,02,23,11,44,5.30
2019,02,23,11,45,5.30
2019,02,23,11,46,5.40
2019,02,23,11,47,5.40
2019,02,23,11,48,5.50
2019,02,23,11,49,5.60
2019,02,23,11,50,5.70
2019,02,23,11,51,5.80
2019,02,23,11,52,5.80
2019,02,23,11,53,5.80
2019,02,23,11,54,5.80
2019,02,23,11,55,5.80
2019,02,23,11,56,5.80
2019,02,23,11,57,5.80
2019,02,23,11,58,5.70
2019,02,23,11,59,5.70
2019,02,23,12,00,5.70
2019,02,23,12,01,5.80
2019,02,23,12,02,5.80
2019,02,23,12,03,5.80
2019,02,23,12,04,5.90
2019,02,23,12,05,5.90
2019,02,23,12,06,5.90
2019,02,23,12,07,6.00
2019,02,23,12,08,6.00
2019,02,23,12,09,6.00
2019,02,23,12,10,6.10
2019,02,23,12,11,6.10
2019,02,23,12,12,6.10
2019,02,23,12,13,6.10
2019,02,23,12,14,6.00
2019,02,23,12,15,5.90
2019,02,23,12,16,5.90
2019,02,23,12,17,5.80
2019,02,23,12,18,5.80
2019,02,23,12,19,5.80
2019,02,23,12,20,5.80
2019,02,23,12,21,5.80
2019,02,23,12,22,5.90
2019,02,23,12,23,5.90
2019,02,23,12,24,6.00
2019,02,23,12,25,6.00
2019,02,23,12,26,6.00
2019,02,23,12,27,6.10
2019,02,23,12,28,6.10
2019,02,23,12,29,6.10
2019,02,23,12,30,6.20
2019,02,23,12,31,6.10
2019,02,23,12,32,6.10
2019,02,23,12,33,6.00
2019,02,23,12,34,5.90
2019,02,23,12,35,5.90
2019,02,23,12,36,5.80
2019,02,23,12,37,5.80
2019,02,23,12,38,5.80
2019,02,23,12,39,5.80
2019,02,23,12,40,5.80
2019,02,23,12,41,5.80
2019,02,23,12,42,5.80
2019,02,23,12,43,5.80
2019,02,23,12,44,5.80
2019,02,23,12,45,5.70
2019,02,23,12,46,5.70
2019,02,23,12,47,5.70
2019,02,23,12,48,5.70
2019,02,23,12,49,5.70
2019,02,23,12,50,5.70
2019,02,23,12,51,5.60
2019,02,23,12,52,5.60
2019,02,23,12,53,5.50
2019,02,23,12,54,5.50
2019,02,23,12,55,5.40
2019,02,23,12,56,5.40
2019,02,23,12,57,5.30
2019,02,23,12,58,5.30
2019,02,23,12,59,5.30
2019,02,23,13,00,5.30
2019,02,23,13,01,5.30
2019,02,23,13,02,5.30
2019,02,23,13,03,5.30
2019,02,23,13,04,5.30
2019,02,23,13,05,5.30
2019,02,23,13,06,5.30
2019,02,23,13,07,5.30
2019,02,23,13,08,5.40
2019,02,23,13,09,5.40
2019,02,23,13,10,5.40
2019,02,23,13,11,5.50
2019,02,23,13,12,5.50
2019,02,23,13,13,5.60
2019,02,23,13,14,5.60
2019,02,23,13,15,5.60
2019,02,23,13,16,5.60
2019,02,23,13,17,5.60
2019,02,23,13,18,5.60
2019,02,23,13,19,5.60
2019,02,23,13,20,5.70
2019,02,23,13,21,5.70
2019,02,23,13,22,5.70
2019,02,23,13,23,5.80
2019,02,23,13,24,5.90
2019,02,23,13,25,5.90
2019,02,23,13,26,6.00
2019,02,23,13,27,6.10
2019,02,23,13,28,6.20
2019,02,23,13,29,6.20
2019,02,23,13,30,6.30
2019,02,23,13,31,6.50
2019,02,23,13,32,6.50
2019,02,23,13,33,6.50
2019,02,23,13,34,6.50
2019,02,23,13,35,6.60
2019,02,23,13,36,6.60
2019,02,23,13,37,6.60
2019,02,23,13,38,6.60
2019,02,23,13,39,6.70
2019,02,23,13,40,6.70
2019,02,23,13,41,6.70
2019,02,23,13,42,6.60
2019,02,23,13,43,6.50
2019,02,23,13,44,6.50
2019,02,23,13,45,6.40
2019,02,23,13,46,6.40
2019,02,23,13,47,6.50
2019,02,23,13,48,6.60
2019,02,23,13,49,6.60
2019,02,23,13,50,6.50
2019,02,23,13,51,6.40
2019,02,23,13,52,6.40
2019,02,23,13,53,6.40
2019,02,23,13,54,6.30
2019,02,23,13,55,6.30
2019,02,23,13,56,6.20
2019,02,23,13,57,6.20
2019,02,23,13,58,6.20
2019,02,23,13,59,6.10
2019,02,23,14,00,6.00
2019,02,23,14,01,6.00
2019,02,23,14,02,5.90
2019,02,23,14,03,5.90
2019,02,23,14,04,5.90
2019,02,23,14,05,5.80
2019,02,23,14,06,5.80
2019,02,23,14,07,5.70
2019,02,23,14,08,5.70
2019,02,23,14,09,5.70
2019,02,23,14,10,5.60
2019,02,23,14,11,5.60
2019,02,23,14,12,5.60
2019,02,23,14,13,5.50
2019,02,23,14,14,5.50
2019,02,23,14,15,5.50
2019,02,23,14,16,5.50
2019,02,23,14,17,5.50
2019,02,23,14,18,5.60
2019,02,23,14,19,5.60
2019,02,23,14,20,5.50
2019,02,23,14,21,5.50
2019,02,23,14,22,5.50
2019,02,23,14,23,5.50
2019,02,23,14,24,5.50
2019,02,23,14,25,5.50
2019,02,23,14,26,5.50
2019,02,23,14,27,5.50
2019,02,23,14,28,5.50
2019,02,23,14,29,5.50
2019,02,23,14,30,5.50
2019,02,23,14,31,5.60
2019,02,23,14,32,5.60
2019,02,23,14,33,5.50
2019,02,23,14,34,5.50
2019,02,23,14,35,5.50
2019,02,23,14,36,5.60
2019,02,23,14,37,5.60
2019,02,23,14,38,5.60
2019,02,23,14,39,5.60
2019,02,23,14,40,5.60
2019,02,23,14,41,5.60
2019,02,23,14,42,5.60
2019,02,23,14,43,5.60
2019,02,23,14,44,5.70
2019,02,23,14,45,5.70
2019,02,23,14,46,5.70
2019,02,23,14,47,5.70
2019,02,23,14,48,5.80
2019,02,23,14,49,5.80
2019,02,23,14,50,5.80
2019,02,23,14,51,5.80
2019,02,23,14,52,5.70
2019,02,23,14,53,5.70
2019,02,23,14,54,5.70
2019,02,23,14,55,5.70
2019,02,23,14,56,5.70
2019,02,23,14,57,5.70
2019,02,23,14,58,5.60
2019,02,23,14,59,5.60
2019,02,23,15,00,5.60
2019,02,23,15,01,5.60
2019,02,23,15,02,5.60
2019,02,23,15,03,5.60
2019,02,23,15,04,5.60
2019,02,23,15,05,5.60
2019,02,23,15,06,5.60
2019,02,23,15,07,5.60
2019,02,23,15,08,5.60
2019,02,23,15,09,5.60
2019,02,23,15,10,5.60
2019,02,23,15,11,5.70
2019,02,23,15,12,5.70
2019,02,23,15,13,5.80
2019,02,23,15,14,5.80
2019,02,23,15,15,5.80
2019,02,23,15,16,5.90
2019,02,23,15,17,5.90
2019,02,23,15,18,5.90
2019,02,23,15,19,5.90
2019,02,23,15,20,6.00
2019,02,23,15,21,6.00
2019,02,23,15,22,6.00
2019,02,23,15,23,6.00
2019,02,23,15,24,6.00
2019,02,23,15,25,6.00
2019,02,23,15,26,6.00
2019,02,23,15,27,6.00
2019,02,23,15,28,6.00
2019,02,23,15,29,5.90
2019,02,23,15,30,5.90
2019,02,23,15,31,5.90
2019,02,23,15,32,5.90
2019,02,23,15,33,5.90
2019,02,23,15,34,5.80
2019,02,23,15,35,5.80
2019,02,23,15,36,5.80
2019,02,23,15,37,5.80
2019,02,23,15,38,5.80
2019,02,23,15,39,5.80
2019,02,23,15,40,5.80
2019,02,23,15,41,5.80
2019,02,23,15,42,5.80
2019,02,23,15,43,5.80
2019,02,23,15,44,5.80
2019,02,23,15,45,5.60
2019,02,23,15,46,5.60
2019,02,23,15,47,5.60
2019,02,23,15,48,5.60
2019,02,23,15,49,5.60
2019,02,23,15,50,5.60
2019,02,23,15,51,5.60
2019,02,23,15,52,5.60
2019,02,23,15,53,5.60
2019,02,23,15,54,5.60
2019,02,23,15,55,5.60
